Temp
73 74 75 77 79 77 77 78 78 79 81 82 80 81 82 82 81 80 80 79 80 80 80 78 78 79 79 80 78 78 78 79 78 77 76 77 73 74 77 77 77 79 79 78 78 75 73 72 72 81 84 84 84 83 84 85 86 85 82 82 85 84 83
74 75 77 78 78 78 77 79 79 79 79 80 82 81 81 82 81 81 80 80 80 80 81 80 79 80 78 77 77 77 77 78 79 78 78 78 77 76 76 75 77 77 78 78 78 77 73 72 74 73 70 79 80 81 81 83 85 85 85 83 83 85 84
72 73 76 76 76 77 77 77 78 78 78 78 79 81 80 82 81 81 80 80 80 81 81 81 80 79 78 78 78 78 78 77 79 78 78 79 79 79 79 77 75 76 76 77 76 76 76 76 73 76 77 77 70 75 80 80 83 85 85 84 82 84 84
72 72 72 74 75 75 75 77 77 78 78 76 78 80 80 80 80 81 80 81 81 80 81 81 80 80 79 79 79 79 78 77 78 78 78 78 79 79 79 79 77 78 76 75 76 77 75 74 75 75 75 82 81 79 80 82 83 85 86 85 83 83 83
74 72 72 73 75 76 76 76 78 78 77 77 77 78 79 80 79 79 79 80 80 80 80 81 81 82 81 81 80 79 78 78 79 79 78 76 77 78 78 79 79 80 80 79 81 79 77 77 76 76 78 81 81 83 86 82 84 86 86 86 86 85 84
74 74 73 74 76 76 77 77 77 77 76 75 77 77 78 79 79 77 78 78 78 78 79 81 81 83 81 81 80 79 79 79 79 79 78 78 78 78 79 80 80 81 81 83 82 80 80 79 76 72 74 73 68 79 85 85 82 86 87 87 87 88 88
75 75 75 75 76 76 78 79 78 77 76 76 77 77 80 80 79 78 78 79 79 79 80 80 81 82 81 82 81 80 79 80 80 79 79 79 78 78 79 79 80 80 80 82 82 81 79 78 75 72 72 71 77 78 83 84 86 82 85 88 89 89 88
76 75 75 75 74 75 78 79 79 78 76 77 78 79 81 80 79 79 79 79 79 80 80 80 81 81 81 81 82 80 80 80 80 79 79 78 78 79 78 79 79 80 80 81 81 81 82 80 79 78 76 72 72 76 77 82 84 84 84 87 89 89 89
76 76 76 75 74 74 76 77 78 77 76 77 80 81 80 80 79 79 79 79 80 81 81 81 81 82 81 80 81 80 79 81 79 79 79 79 78 78 78 79 79 80 80 81 81 80 81 81 81 80 78 75 71 71 75 75 78 81 87 84 87 89 89
75 75 77 76 74 74 75 76 77 77 77 77 79 81 79 80 80 79 79 79 80 80 81 81 81 82 81 80 79 79 79 79 79 79 79 79 79 79 79 78 79 80 81 81 81 81 81 80 81 81 81 77 76 72 71 72 76 77 83 86 82 86 89
77 78 78 77 77 75 75 75 76 76 76 78 78 78 79 78 78 78 79 79 80 80 80 81 82 81 80 79 79 79 80 80 79 78 79 79 78 79 79 79 79 80 81 81 82 80 80 79 80 80 80 80 79 74 74 71 71 80 81 83 84 84 87
78 77 78 79 77 74 74 73 74 75 76 78 77 76 76 77 77 77 78 79 79 79 80 80 80 80 80 78 78 78 78 79 78 78 78 78 79 79 79 78 79 79 80 80 80 80 79 79 80 81 80 80 79 77 74 74 70 77 82 79 84 87 86
79 78 77 78 78 77 75 75 75 74 74 76 77 77 77 77 76 77 79 79 80 81 80 80 80 80 79 79 78 77 77 78 79 78 78 78 78 78 78 78 78 79 80 80 80 79 79 80 80 80 80 79 78 77 75 73 71 72 80 80 82 85 86
77 79 76 73 76 78 78 76 77 76 77 76 77 77 77 77 78 77 79 76 79 80 80 79 80 80 79 78 78 78 78 79 79 78 77 76 78 78 79 79 80 79 80 79 79 80 80 80 80 79 79 79 78 78 76 73 71 72 77 81 81 82 84
78 79 77 71 70 73 77 79 79 77 75 75 75 77 78 78 79 79 79 80 81 81 80 81 81 80 79 77 78 78 79 79 78 78 77 77 77 78 78 79 80 80 80 80 79 80 82 81 81 80 79 78 78 78 78 74 73 72 72 77 78 83 83
78 77 78 76 74 74 76 77 79 77 76 74 77 77 77 78 78 80 79 77 80 82 82 83 81 80 79 78 78 78 78 79 78 77 76 76 78 78 77 77 78 80 79 78 78 78 79 79 81 80 79 80 78 78 80 78 74 72 73 74 77 78 79
77 76 76 78 79 77 77 76 78 77 78 75 74 73 75 77 77 77 79 77 77 78 80 83 82 82 81 80 78 78 79 79 79 78 77 77 77 78 77 75 75 77 78 77 78 78 78 78 77 78 79 79 79 78 78 77 76 74 74 72 75 78 79
74 75 76 77 78 78 75 76 76 79 78 76 76 74 74 76 77 77 77 79 80 81 81 82 83 83 82 81 80 79 79 79 79 79 78 77 76 78 77 76 76 76 77 77 77 77 78 76 78 77 76 78 79 78 78 77 76 76 73 72 74 77 79
76 76 77 78 78 78 76 72 75 77 79 78 77 77 76 76 77 78 79 80 81 82 82 79 81 84 84 83 82 80 79 79 78 79 79 78 78 78 78 78 77 77 76 75 74 75 77 77 77 76 75 75 78 78 76 76 75 75 74 74 73 74 76
75 75 76 76 77 78 78 76 77 78 78 78 77 77 77 76 75 76 77 78 79 80 82 82 82 82 82 82 81 81 79 79 79 78 79 80 80 79 79 78 77 77 77 76 74 74 75 74 74 74 75 75 77 77 76 75 75 74 73 73 74 74 74
71 71 75 76 76 76 77 79 78 78 77 78 78 78 78 76 74 75 76 76 76 77 80 82 83 83 82 82 81 79 79 78 79 78 78 79 80 80 79 78 78 79 79 78 76 76 75 74 74 73 74 75 75 74 75 75 74 74 74 73 72 72 74
69 70 77 77 75 75 78 78 77 77 77 78 77 79 77 76 74 73 76 77 76 76 77 79 81 82 82 83 81 78 77 78 78 78 78 79 79 79 80 79 79 80 78 72 67 69 70 70 76 74 73 73 72 72 73 75 74 74 74 74 73 74 73
65 67 72 76 76 76 75 75 75 75 76 77 77 76 73 71 74 73 72 74 75 75 76 77 72 65 66 80 80 80 78 77 79 79 79 79 79 78 79 79 79 71 67 64 62 59 58 58 63 74 79 76 72 71 71 72 73 74 73 72 72 73 72
66 64 66 72 75 77 76 73 72 74 75 76 76 75 73 73 73 74 74 73 72 74 76 77 62 56 56 59 75 78 77 76 77 78 78 78 78 77 78 80 81 74 68 64 64 56 55 55 54 55 58 62 67 75 73 70 72 73 72 72 74 74 74
66 66 66 70 73 77 75 72 72 73 73 72 74 75 75 75 73 73 74 75 75 75 75 65 55 54 53 54 60 76 77 76 74 75 77 78 79 80 79 79 80 80 78 75 73 68 60 54 52 52 52 53 53 52 56 70 73 73 72 72 72 73 74
66 66 66 69 71 74 73 72 71 72 72 74 73 74 75 75 75 75 74 74 75 75 75 59 52 53 53 52 53 65 78 76 75 75 76 78 81 81 81 80 79 78 78 66 69 73 72 68 54 51 52 52 52 52 50 48 52 68 75 72 71 72 74
64 65 65 65 65 67 70 68 69 69 72 73 73 73 74 74 76 77 76 76 75 75 74 62 51 52 52 51 51 58 78 77 77 78 77 79 80 80 80 80 78 76 77 75 72 72 74 73 71 67 65 66 68 63 53 51 50 49 58 72 73 73 75
62 63 66 67 66 65 67 71 70 70 72 73 72 74 73 74 75 76 77 77 76 75 75 59 50 49 50 50 50 54 76 76 77 78 78 79 80 80 80 79 78 77 78 78 76 72 73 74 75 72 70 69 69 71 71 70 68 68 67 69 72 74 76
69 63 62 64 66 67 66 66 70 73 71 71 74 74 74 74 73 74 76 77 75 75 77 56 49 49 49 49 49 62 72 75 75 77 77 78 80 80 80 80 79 76 77 78 68 57 64 75 76 76 73 72 72 72 72 68 63 62 68 72 73 74 75
71 71 72 68 67 67 66 66 69 70 69 70 69 70 71 74 76 76 76 76 75 75 77 62 48 49 49 48 51 68 72 75 75 75 76 77 79 79 78 80 79 79 78 79 65 52 53 61 76 76 75 74 73 73 73 74 60 52 53 54 55 56 56
69 71 73 73 70 66 66 65 65 68 69 71 72 74 75 76 76 76 76 76 77 76 75 66 49 49 48 47 55 69 73 74 74 74 75 79 80 80 79 67 72 79 79 78 60 49 50 60 75 76 76 74 73 72 73 74 73 67 51 50 51 50 51
67 68 70 71 72 72 70 68 68 67 66 68 72 75 75 74 73 73 74 74 66 71 75 69 50 48 47 46 55 70 74 75 74 74 76 78 79 80 80 72 64 68 74 72 56 50 48 57 73 76 76 75 73 72 73 75 73 72 67 64 64 63 60
66 66 69 70 72 72 74 74 74 71 68 67 70 70 72 73 73 74 75 74 74 75 74 76 67 46 48 46 49 68 75 76 75 75 76 77 79 79 80 81 71 54 54 55 53 48 47 48 69 75 76 74 73 72 77 76 74 74 72 68 69 69 67
64 65 66 68 70 72 74 73 74 74 74 72 69 68 70 73 74 75 75 75 75 76 75 74 71 46 46 46 46 55 74 76 76 76 76 76 78 79 80 81 83 62 50 51 51 48 46 45 52 71 74 74 74 74 70 76 74 63 73 71 70 70 71
63 63 65 66 67 69 72 74 74 75 75 74 73 72 72 73 73 74 75 75 75 76 73 65 77 53 46 46 45 47 67 73 74 75 74 76 78 80 80 82 81 68 50 49 49 50 47 46 45 62 71 59 56 52 70 74 75 73 72 72 73 72 73
61 62 63 65 66 67 69 72 73 74 74 73 72 71 71 71 71 71 71 72 73 74 75 73 57 65 47 45 45 46 50 63 56 72 75 76 78 79 82 81 79 64 50 48 49 49 49 46 47 56 53 52 53 51 55 70 72 71 70 70 70 71 73
60 61 63 64 65 66 67 70 72 73 74 73 72 71 71 71 69 69 69 70 72 75 76 75 61 55 59 43 45 44 45 47 52 71 76 77 79 80 81 83 75 56 52 47 45 47 47 47 56 50 47 48 49 50 64 67 67 68 66 66 65 68 70
MSLP
1010.89 1010.89 1010.85 1010.77 1010.73 1011.37 1011.89 1012.17 1012.37 1012.49 1012.53 1012.65 1013.09 1013.25 1013.33 1013.57 1013.85 1014.21 1014.57 1014.89 1015.13 1015.29 1015.61 1015.97 1016.13 1016.17 1016.41 1016.57 1016.89 1017.05 1017.17 1017.13 1017.33 1017.53 1017.85 1017.85 1018.57 1018.65 1018.25 1018.41 1018.53 1018.33 1018.37 1018.53 1018.65 1019.29 1019.73 1019.81 1019.53 1018.49 1018.05 1018.01 1018.01 1018.13 1018.25 1018.21 1018.17 1018.25 1018.49 1018.65 1018.65 1018.73 1018.81
1009.93 1009.97 1010.17 1010.53 1010.85 1011.09 1011.45 1011.49 1011.89 1012.13 1012.33 1012.37 1012.53 1012.89 1013.01 1013.17 1013.41 1013.77 1014.13 1014.45 1014.73 1014.89 1015.17 1015.45 1015.69 1015.81 1016.17 1016.49 1016.81 1017.01 1017.13 1017.01 1016.93 1017.01 1017.13 1017.49 1017.81 1018.09 1018.33 1018.49 1018.37 1018.45 1018.37 1018.45 1018.45 1018.61 1019.45 1019.81 1019.37 1019.49 1019.77 1018.17 1018.17 1018.09 1018.13 1017.93 1017.77 1017.77 1017.89 1018.17 1018.29 1018.25 1018.21
1009.73 1009.93 1010.01 1010.41 1010.73 1010.85 1011.21 1011.37 1011.57 1011.97 1012.17 1012.29 1012.25 1012.41 1012.73 1012.77 1013.01 1013.37 1013.73 1013.97 1014.21 1014.45 1014.69 1014.89 1015.29 1015.61 1015.81 1016.05 1016.29 1016.57 1016.69 1016.89 1016.69 1016.81 1016.93 1016.81 1017.09 1017.13 1017.37 1017.77 1018.29 1018.37 1018.45 1018.45 1018.49 1018.61 1018.77 1018.85 1019.45 1018.73 1018.21 1018.29 1019.65 1018.65 1017.77 1017.85 1017.69 1017.45 1017.45 1017.65 1017.93 1017.97 1017.85
1009.41 1009.81 1010.21 1010.33 1010.45 1010.77 1011.05 1011.09 1011.29 1011.57 1011.85 1012.17 1012.09 1011.97 1012.17 1012.41 1012.61 1012.89 1013.29 1013.53 1013.73 1014.05 1014.33 1014.53 1014.85 1015.17 1015.37 1015.65 1015.81 1016.13 1016.45 1016.69 1016.57 1016.61 1016.77 1016.73 1016.81 1016.93 1017.09 1017.21 1017.57 1017.69 1017.97 1018.25 1018.25 1018.25 1018.53 1018.77 1018.73 1018.61 1018.57 1017.49 1017.41 1017.65 1017.17 1017.21 1017.21 1017.01 1017.01 1017.05 1017.41 1017.49 1017.45
1009.01 1009.45 1009.77 1009.97 1010.01 1010.29 1010.49 1010.69 1010.77 1011.13 1011.49 1011.61 1011.69 1011.77 1011.85 1011.89 1012.21 1012.53 1012.89 1013.21 1013.45 1013.69 1013.93 1014.01 1014.25 1014.53 1014.85 1015.17 1015.49 1015.81 1016.09 1016.25 1016.25 1016.37 1016.61 1016.85 1016.81 1016.81 1016.93 1016.85 1016.97 1016.89 1017.01 1017.33 1017.17 1017.41 1017.81 1017.97 1018.17 1018.25 1017.97 1017.37 1017.17 1016.89 1016.29 1016.69 1016.81 1016.65 1016.53 1016.61 1016.57 1016.73 1016.85
1008.53 1008.81 1009.21 1009.33 1009.25 1009.61 1009.81 1010.17 1010.41 1010.77 1010.93 1011.21 1011.17 1011.37 1011.49 1011.57 1011.73 1012.29 1012.61 1012.93 1013.21 1013.41 1013.57 1013.73 1013.89 1014.09 1014.45 1014.77 1015.05 1015.41 1015.61 1015.93 1016.05 1016.13 1016.33 1016.45 1016.49 1016.65 1016.61 1016.49 1016.57 1016.61 1016.69 1016.41 1016.57 1016.89 1017.01 1017.25 1017.81 1018.49 1018.13 1018.53 1019.13 1017.41 1016.41 1016.21 1016.81 1016.25 1016.01 1016.05 1016.01 1015.97 1016.05
1008.05 1008.25 1008.49 1008.69 1008.73 1008.89 1009.05 1009.37 1009.73 1010.01 1010.37 1010.49 1010.57 1010.89 1010.93 1011.25 1011.53 1011.81 1012.21 1012.53 1012.77 1013.01 1013.25 1013.41 1013.57 1013.77 1014.09 1014.37 1014.69 1015.01 1015.33 1015.41 1015.49 1015.77 1015.97 1016.09 1016.21 1016.29 1016.25 1016.41 1016.33 1016.37 1016.33 1016.09 1016.21 1016.45 1016.85 1017.25 1017.73 1018.13 1018.25 1018.41 1017.61 1017.37 1016.45 1016.25 1015.85 1016.45 1015.97 1015.57 1015.33 1015.33 1015.49
1007.45 1007.77 1008.01 1008.13 1008.41 1008.57 1008.61 1008.85 1009.01 1009.41 1009.97 1010.01 1010.05 1010.17 1010.37 1010.73 1011.09 1011.45 1011.81 1012.17 1012.41 1012.61 1012.81 1012.97 1013.21 1013.49 1013.73 1014.01 1014.21 1014.53 1014.85 1014.97 1015.17 1015.37 1015.53 1015.77 1016.01 1016.05 1016.17 1016.21 1016.13 1016.09 1016.05 1016.01 1016.05 1016.17 1016.09 1016.45 1016.77 1016.89 1017.29 1018.05 1017.89 1017.29 1017.13 1016.33 1015.97 1015.89 1015.97 1015.41 1014.89 1015.01 1015.01
1006.89 1007.13 1007.49 1007.89 1008.17 1008.13 1008.25 1008.45 1008.65 1008.97 1009.37 1009.45 1009.41 1009.57 1010.05 1010.41 1010.77 1011.21 1011.65 1011.85 1011.97 1012.17 1012.29 1012.53 1012.85 1013.09 1013.41 1013.77 1013.93 1014.13 1014.57 1014.53 1014.85 1015.05 1015.13 1015.25 1015.53 1015.65 1015.77 1015.81 1015.97 1015.85 1015.65 1015.73 1015.81 1015.97 1015.97 1015.89 1016.05 1016.25 1016.65 1017.25 1017.85 1017.93 1017.01 1016.97 1016.57 1016.05 1015.05 1015.57 1014.89 1014.53 1014.65
1006.69 1006.89 1006.93 1007.29 1007.69 1007.73 1007.77 1008.13 1008.37 1008.49 1008.85 1009.05 1009.17 1009.17 1009.65 1010.09 1010.33 1010.81 1011.21 1011.41 1011.61 1011.73 1011.93 1012.13 1012.45 1012.69 1013.01 1013.37 1013.69 1013.85 1014.17 1014.21 1014.45 1014.65 1014.65 1014.85 1014.97 1015.13 1015.29 1015.45 1015.57 1015.53 1015.41 1015.21 1015.33 1015.49 1015.69 1015.81 1015.81 1015.81 1015.89 1016.45 1016.73 1017.33 1017.65 1017.29 1016.53 1016.41 1015.29 1014.97 1015.61 1014.69 1014.29
1006.01 1006.17 1006.37 1006.73 1007.05 1007.45 1007.57 1007.77 1008.05 1008.29 1008.53 1008.57 1008.85 1009.09 1009.33 1009.89 1010.21 1010.49 1010.81 1010.97 1011.05 1011.29 1011.53 1011.77 1012.05 1012.33 1012.73 1013.09 1013.29 1013.53 1013.61 1013.85 1014.17 1014.29 1014.33 1014.45 1014.57 1014.57 1014.77 1015.01 1015.09 1015.17 1015.05 1015.09 1015.09 1015.21 1015.45 1015.57 1015.69 1015.65 1015.69 1015.65 1015.85 1016.69 1016.81 1017.21 1016.73 1015.57 1015.45 1014.93 1014.85 1014.97 1014.37
1005.53 1005.93 1005.93 1006.05 1006.65 1007.25 1007.37 1007.41 1007.73 1008.01 1008.13 1008.17 1008.65 1009.05 1009.37 1009.85 1010.13 1010.29 1010.45 1010.57 1010.65 1010.89 1011.17 1011.45 1011.65 1011.97 1012.33 1012.77 1013.01 1013.29 1013.33 1013.49 1013.73 1013.97 1014.09 1014.21 1014.13 1014.21 1014.41 1014.69 1014.73 1014.85 1014.85 1014.97 1014.97 1015.05 1015.29 1015.49 1015.49 1015.41 1015.45 1015.41 1015.57 1015.89 1016.33 1016.57 1017.09 1015.61 1014.93 1015.37 1014.57 1014.05 1014.25
1005.05 1005.37 1005.57 1005.65 1005.93 1006.41 1006.73 1007.05 1007.29 1007.65 1007.97 1008.13 1008.25 1008.73 1009.17 1009.61 1009.93 1010.05 1010.05 1010.13 1010.29 1010.45 1010.77 1011.05 1011.29 1011.61 1011.97 1012.29 1012.65 1012.97 1013.09 1013.17 1013.49 1013.73 1013.73 1013.77 1013.89 1013.93 1014.09 1014.37 1014.45 1014.53 1014.61 1014.73 1014.81 1014.93 1015.09 1015.13 1015.13 1015.29 1015.25 1015.37 1015.41 1015.57 1015.89 1016.29 1016.49 1016.21 1014.93 1015.01 1014.77 1014.41 1014.13
1004.49 1004.65 1005.05 1005.73 1005.69 1005.61 1005.85 1006.25 1006.69 1006.93 1007.29 1007.73 1007.97 1008.33 1008.93 1009.29 1009.45 1009.61 1009.69 1010.25 1010.05 1010.01 1010.33 1010.65 1010.89 1011.17 1011.57 1011.89 1012.13 1012.41 1012.61 1012.77 1013.05 1013.25 1013.37 1013.49 1013.49 1013.65 1013.69 1013.89 1013.93 1014.09 1014.25 1014.57 1014.57 1014.65 1014.77 1014.85 1014.97 1015.17 1015.17 1015.13 1015.25 1015.25 1015.65 1016.01 1016.33 1016.05 1015.21 1014.49 1014.57 1014.53 1014.13
1003.97 1004.09 1004.33 1005.57 1006.49 1006.09 1005.45 1005.33 1005.97 1006.61 1006.97 1007.21 1007.65 1008.17 1008.41 1008.73 1008.89 1008.97 1009.17 1009.17 1009.33 1009.49 1009.65 1009.93 1010.25 1010.65 1011.13 1011.53 1011.77 1011.93 1012.17 1012.33 1012.57 1012.73 1012.93 1013.13 1013.13 1013.21 1013.33 1013.53 1013.53 1013.61 1013.81 1014.21 1014.37 1014.45 1014.33 1014.49 1014.73 1014.93 1014.97 1015.09 1015.05 1015.01 1014.97 1015.61 1015.69 1015.77 1015.73 1014.93 1014.81 1014.13 1014.05
1003.49 1003.69 1003.85 1004.17 1005.09 1005.33 1005.05 1005.17 1005.45 1006.09 1006.49 1006.89 1006.93 1007.41 1007.81 1007.97 1008.17 1008.25 1008.77 1009.49 1009.29 1008.97 1008.81 1009.09 1009.53 1010.01 1010.53 1010.93 1011.29 1011.49 1011.61 1011.77 1012.01 1012.29 1012.53 1012.65 1012.69 1012.73 1013.09 1013.33 1013.37 1013.29 1013.41 1013.81 1014.05 1014.13 1014.17 1014.29 1014.33 1014.49 1014.57 1014.53 1014.69 1014.65 1014.53 1014.81 1015.33 1015.53 1015.41 1015.13 1014.61 1014.69 1014.41
1003.25 1003.45 1003.57 1003.53 1003.73 1004.17 1004.61 1005.05 1005.21 1005.53 1006.09 1006.45 1006.85 1007.13 1007.45 1007.73 1007.85 1007.97 1008.17 1008.85 1009.25 1009.09 1008.69 1008.41 1008.81 1009.33 1009.81 1010.25 1010.61 1010.89 1011.13 1011.33 1011.49 1011.65 1011.89 1012.17 1012.29 1012.41 1012.65 1013.05 1013.25 1013.17 1013.17 1013.49 1013.57 1013.69 1013.73 1013.97 1014.25 1014.37 1014.37 1014.17 1014.25 1014.49 1014.41 1014.53 1014.61 1014.97 1014.97 1015.13 1014.53 1014.41 1014.01
1003.29 1003.25 1003.25 1003.25 1003.37 1003.61 1004.25 1004.61 1005.05 1005.29 1005.69 1006.25 1006.45 1006.77 1006.97 1007.09 1007.29 1007.45 1007.73 1007.93 1008.05 1008.13 1008.33 1008.45 1008.41 1008.69 1009.05 1009.41 1009.81 1010.21 1010.53 1010.85 1011.05 1011.17 1011.33 1011.61 1011.73 1011.89 1012.09 1012.41 1012.65 1012.81 1012.85 1013.13 1013.25 1013.33 1013.29 1013.49 1013.57 1013.93 1014.17 1014.05 1014.01 1014.01 1014.17 1014.25 1014.33 1014.37 1014.73 1014.89 1014.53 1014.01 1013.73
1002.57 1002.69 1002.81 1002.89 1003.01 1003.17 1003.85 1004.73 1004.81 1004.85 1005.13 1005.57 1005.93 1006.17 1006.45 1006.73 1006.81 1007.05 1007.17 1007.33 1007.49 1007.65 1008.01 1008.53 1008.57 1008.41 1008.53 1008.77 1009.09 1009.53 1009.93 1010.25 1010.57 1010.77 1010.89 1011.09 1011.25 1011.33 1011.49 1011.69 1011.93 1012.21 1012.49 1012.81 1013.05 1013.09 1012.97 1013.13 1013.25 1013.41 1013.65 1013.73 1013.61 1013.57 1013.77 1013.89 1014.09 1014.25 1014.25 1014.21 1014.21 1014.09 1013.69
1002.33 1002.45 1002.45 1002.61 1002.77 1003.01 1003.33 1003.85 1004.13 1004.45 1004.69 1005.09 1005.29 1005.69 1005.93 1006.25 1006.45 1006.77 1006.97 1007.17 1007.33 1007.41 1007.45 1007.73 1007.93 1008.09 1008.29 1008.53 1008.81 1009.13 1009.49 1009.81 1010.09 1010.33 1010.37 1010.41 1010.57 1010.69 1010.81 1010.97 1011.25 1011.49 1011.85 1012.09 1012.41 1012.61 1012.65 1012.77 1012.93 1013.09 1013.21 1013.29 1013.21 1013.21 1013.25 1013.41 1013.57 1013.77 1013.93 1014.05 1013.85 1013.69 1013.69
1002.73 1002.81 1002.25 1002.25 1002.57 1002.85 1003.09 1003.21 1003.45 1003.69 1004.13 1004.45 1004.69 1004.93 1005.25 1005.53 1005.89 1006.41 1006.73 1007.01 1007.21 1007.29 1007.25 1007.29 1007.33 1007.53 1007.85 1008.05 1008.29 1008.77 1009.13 1009.45 1009.69 1009.89 1009.97 1009.93 1010.01 1010.09 1010.17 1010.33 1010.53 1010.69 1010.89 1011.17 1011.49 1011.69 1011.89 1012.17 1012.29 1012.57 1012.57 1012.73 1012.97 1013.17 1013.09 1012.97 1013.05 1013.17 1013.33 1013.45 1013.57 1013.57 1013.25
1002.85 1003.01 1001.85 1001.69 1002.09 1002.33 1002.37 1002.61 1002.93 1003.29 1003.65 1003.93 1004.13 1004.29 1004.61 1005.05 1005.65 1006.01 1006.25 1006.53 1006.93 1007.13 1007.33 1007.21 1007.01 1006.93 1007.21 1007.49 1007.73 1008.21 1008.65 1009.05 1009.25 1009.41 1009.53 1009.57 1009.57 1009.57 1009.61 1009.69 1009.77 1009.85 1010.01 1010.29 1010.53 1010.73 1010.85 1011.05 1011.41 1011.85 1011.97 1012.17 1012.57 1012.81 1012.77 1012.61 1012.49 1012.57 1012.61 1012.73 1012.85 1012.77 1012.93
1003.13 1003.29 1002.25 1001.33 1001.41 1001.81 1002.21 1002.41 1002.81 1003.17 1003.29 1003.65 1004.05 1004.17 1004.49 1005.33 1005.61 1005.77 1006.05 1006.37 1006.57 1006.81 1007.01 1006.93 1006.57 1006.53 1006.77 1006.97 1007.17 1007.33 1007.85 1008.37 1008.65 1008.77 1008.93 1009.01 1009.13 1009.13 1009.09 1009.05 1009.01 1009.21 1009.53 1009.81 1010.13 1010.37 1010.57 1010.73 1010.77 1010.69 1010.85 1011.29 1011.77 1012.17 1012.25 1012.29 1012.17 1012.01 1012.05 1012.17 1012.17 1012.29 1012.49
1003.01 1003.49 1002.89 1001.77 1001.13 1001.21 1001.53 1001.97 1002.37 1002.57 1002.81 1003.01 1003.33 1003.69 1004.13 1004.37 1004.53 1005.01 1005.45 1005.65 1006.13 1006.49 1006.61 1006.33 1006.01 1006.01 1006.29 1006.53 1006.73 1006.89 1007.17 1007.77 1008.17 1008.37 1008.45 1008.57 1008.65 1008.77 1008.69 1008.49 1008.41 1008.77 1009.29 1009.57 1009.77 1010.01 1010.25 1010.45 1010.57 1010.65 1010.69 1010.65 1010.69 1011.05 1011.53 1011.85 1011.65 1011.49 1011.57 1011.45 1011.21 1011.37 1011.41
1002.81 1002.97 1002.89 1002.25 1001.41 1000.81 1001.13 1001.89 1002.25 1002.33 1002.37 1002.69 1002.73 1003.01 1003.49 1003.77 1004.01 1004.33 1004.69 1005.05 1005.41 1005.89 1006.13 1006.01 1005.85 1005.45 1005.73 1006.09 1006.41 1006.65 1006.93 1007.29 1007.65 1007.97 1008.01 1008.01 1007.89 1007.89 1008.01 1008.01 1008.01 1008.01 1008.41 1008.69 1009.09 1009.57 1009.89 1010.05 1010.21 1010.33 1010.49 1010.61 1010.73 1010.77 1010.65 1010.69 1010.89 1011.01 1010.93 1010.89 1010.77 1010.61 1010.65
1002.69 1002.77 1002.49 1001.97 1001.65 1001.25 1001.29 1001.61 1002.21 1002.21 1002.17 1001.89 1002.21 1002.53 1002.85 1003.13 1003.45 1003.65 1004.01 1004.49 1004.85 1005.17 1005.41 1005.53 1005.69 1005.09 1005.13 1005.61 1006.05 1006.41 1006.61 1006.97 1007.25 1007.33 1007.37 1007.37 1007.25 1007.21 1007.25 1007.41 1007.57 1007.53 1007.49 1007.97 1008.45 1008.65 1008.93 1009.33 1009.73 1009.93 1010.13 1010.41 1010.57 1010.57 1010.53 1010.49 1010.37 1010.25 1010.05 1010.25 1010.21 1009.93 1009.69
1002.29 1002.21 1001.97 1001.89 1002.29 1002.29 1001.73 1002.05 1002.01 1002.21 1001.93 1001.61 1001.77 1002.09 1002.29 1002.69 1002.73 1002.97 1003.37 1003.85 1004.21 1004.41 1004.77 1005.05 1005.49 1005.05 1004.73 1005.09 1005.57 1006.01 1006.01 1006.37 1006.53 1006.45 1006.57 1006.53 1006.49 1006.53 1006.57 1006.73 1007.05 1007.33 1007.05 1007.17 1007.61 1008.01 1008.21 1008.33 1008.69 1009.37 1009.85 1010.09 1010.05 1010.05 1010.33 1010.29 1010.09 1010.13 1010.09 1009.73 1009.37 1009.21 1008.65
1001.97 1001.77 1001.77 1001.69 1001.77 1002.29 1002.13 1001.53 1001.49 1001.53 1001.09 1000.73 1001.09 1001.37 1001.81 1002.17 1002.29 1002.45 1002.73 1003.17 1003.61 1003.89 1004.09 1004.45 1005.01 1005.25 1004.97 1005.01 1005.49 1005.97 1005.77 1005.89 1005.89 1005.81 1005.77 1005.81 1005.89 1006.01 1006.13 1006.21 1006.33 1006.37 1006.33 1006.33 1006.53 1007.05 1007.45 1007.61 1007.77 1008.01 1008.49 1008.93 1009.09 1009.13 1009.25 1009.29 1009.25 1009.33 1009.49 1009.25 1008.93 1008.53 1008.29
1002.13 1002.53 1002.57 1002.33 1001.89 1001.69 1001.85 1002.01 1000.97 1000.21 1000.41 1000.53 1000.53 1000.77 1001.17 1001.65 1002.21 1002.33 1002.37 1002.73 1003.13 1003.33 1003.33 1003.69 1004.29 1004.73 1004.85 1004.89 1005.37 1005.97 1005.73 1005.69 1005.65 1005.53 1005.49 1005.33 1005.21 1005.33 1005.61 1005.77 1005.93 1005.93 1005.73 1005.57 1005.45 1005.81 1006.09 1006.49 1007.05 1007.09 1007.29 1007.65 1008.05 1008.33 1008.29 1007.69 1007.69 1008.17 1008.21 1008.17 1008.25 1008.17 1008.01
1001.85 1001.85 1001.57 1001.69 1001.61 1001.49 1001.45 1001.45 1000.73 1000.21 1000.53 1000.53 1000.93 1000.97 1001.05 1001.05 1001.17 1001.49 1001.89 1002.21 1002.57 1002.77 1002.81 1003.09 1003.69 1004.13 1004.45 1004.81 1005.65 1005.65 1005.57 1005.45 1005.37 1005.29 1005.13 1004.97 1004.81 1004.81 1005.13 1005.33 1005.33 1005.37 1005.49 1005.41 1005.29 1005.49 1005.69 1005.97 1006.25 1006.49 1006.61 1006.81 1006.97 1007.37 1007.41 1006.97 1007.21 1007.49 1007.57 1007.77 1007.85 1007.85 1008.01
1002.33 1001.85 1001.33 1001.05 1001.25 1001.41 1001.29 1001.41 1001.33 1000.85 1000.41 1000.09 1000.01 999.97 1000.13 1000.33 1000.65 1001.01 1001.45 1001.65 1001.81 1002.21 1002.41 1002.49 1003.09 1003.49 1003.89 1004.61 1005.01 1004.97 1004.93 1004.93 1004.97 1005.01 1004.77 1004.37 1004.09 1004.09 1004.29 1004.81 1005.05 1004.97 1004.93 1004.85 1004.89 1005.29 1005.61 1005.77 1005.69 1005.65 1005.81 1006.25 1006.65 1006.77 1006.53 1006.37 1006.61 1006.69 1006.97 1007.37 1007.57 1007.73 1007.85
1002.73 1002.33 1001.85 1001.21 1000.81 1000.61 1000.73 1000.81 1000.69 1000.97 1001.13 1000.73 1000.05 999.61 999.77 1000.33 1000.73 1001.01 1001.21 1001.41 1001.65 1001.97 1002.05 1002.01 1002.49 1002.97 1003.49 1004.09 1004.57 1004.45 1004.41 1004.41 1004.45 1004.49 1004.33 1003.93 1003.53 1003.57 1003.69 1004.05 1004.53 1004.73 1004.57 1004.25 1004.45 1004.89 1005.25 1005.49 1005.29 1005.13 1005.13 1005.49 1005.97 1006.05 1005.69 1005.65 1006.33 1006.33 1006.73 1007.29 1007.37 1007.53 1007.77
1002.85 1002.61 1002.13 1001.61 1001.09 1000.65 1000.29 1000.05 999.93 1000.29 1000.77 1001.01 1000.57 1000.29 1000.09 1000.09 1000.25 1000.29 1000.49 1000.89 1001.09 1001.33 1001.57 1001.61 1001.85 1002.45 1003.09 1003.65 1004.05 1003.89 1003.65 1003.57 1003.65 1003.69 1003.61 1003.29 1003.17 1003.17 1003.21 1003.25 1003.61 1004.09 1004.21 1004.29 1004.45 1004.81 1005.21 1005.73 1005.45 1005.09 1005.01 1005.21 1005.49 1005.41 1004.61 1005.29 1005.57 1005.53 1005.85 1006.49 1006.69 1006.85 1006.93
1002.93 1002.65 1002.37 1001.97 1001.45 1000.89 1000.37 1000.09 999.89 999.85 999.89 1000.17 1000.53 1000.69 1000.29 999.77 999.77 999.85 999.97 1000.17 1000.49 1000.69 1000.89 1001.21 1001.37 1002.09 1002.73 1003.29 1003.69 1003.61 1003.09 1002.81 1002.73 1002.85 1002.93 1003.01 1002.85 1002.85 1002.81 1002.77 1002.61 1003.01 1003.69 1004.01 1004.37 1004.73 1005.17 1005.49 1005.49 1005.25 1005.21 1005.05 1004.77 1004.41 1004.73 1005.13 1005.01 1005.13 1005.33 1005.81 1006.21 1006.21 1006.17
1002.97 1002.69 1002.33 1002.01 1001.61 1001.13 1000.49 1000.09 999.89 999.73 999.61 999.57 999.69 999.89 999.93 999.81 999.73 999.73 999.77 999.93 1000.17 1000.33 1000.37 1000.77 1000.89 1001.57 1002.25 1002.77 1003.13 1003.25 1002.77 1002.21 1001.93 1002.25 1002.77 1002.65 1002.53 1002.29 1002.13 1002.01 1002.17 1002.41 1003.01 1003.49 1003.93 1004.29 1004.77 1005.33 1005.65 1005.69 1005.05 1004.77 1004.65 1004.93 1005.17 1005.01 1004.85 1005.05 1005.09 1005.25 1005.33 1005.37 1005.41
1003.01 1002.61 1002.29 1001.93 1001.61 1001.13 1000.69 1000.25 999.93 999.69 999.61 999.57 999.65 999.69 999.73 999.85 1000.01 1000.09 1000.13 1000.05 1000.05 1000.05 1000.21 1000.45 1000.89 1001.17 1001.85 1002.41 1002.77 1002.97 1002.53 1001.93 1001.73 1002.09 1002.29 1002.33 1002.05 1001.73 1001.45 1001.61 1001.73 1001.93 1002.45 1002.85 1003.29 1003.73 1004.29 1004.77 1005.41 1005.53 1005.05 1004.81 1004.65 1004.65 1005.17 1005.09 1004.89 1004.81 1004.81 1004.85 1004.97 1004.97 1004.73
1003.05 1002.57 1002.17 1001.81 1001.41 1001.09 1000.65 1000.21 999.77 999.45 999.41 999.41 999.49 999.65 999.65 999.69 999.97 1000.17 1000.29 1000.33 1000.09 999.85 999.89 1000.33 1000.57 1000.81 1001.33 1002.33 1002.89 1002.85 1002.49 1002.09 1002.01 1002.01 1002.01 1001.89 1001.57 1001.49 1001.37 1001.37 1001.57 1001.97 1002.25 1002.61 1002.97 1003.37 1003.89 1004.41 1004.65 1004.69 1004.89 1004.73 1004.57 1004.77 1005.13 1004.93 1004.73 1004.61 1004.69 1004.73 1004.77 1004.65 1004.49
Wind_Speed
16 13 13 12 12 11 12 13 12 13 15 15 15 15 15 16 15 15 15 15 14 14 13 13 13 12 12 12 13 13 12 11 12 10 10 9 11 10 12 12 11 10 10 10 9 7 6 6 6 6 7 8 9 9 10 10 10 10 10 9 10 11 10
14 12 9 10 11 12 14 13 13 13 14 16 16 16 15 16 15 15 16 16 15 15 14 13 13 13 14 14 13 13 13 12 11 10 9 10 10 10 10 11 11 10 10 10 9 9 8 7 8 6 8 8 7 8 9 10 10 9 9 10 10 10 10
10 9 10 11 12 12 13 14 12 12 12 13 15 16 15 16 16 15 15 16 16 15 14 15 14 13 14 14 14 14 13 13 11 11 11 10 10 10 11 10 10 10 10 9 9 9 9 10 9 8 7 7 7 8 9 10 11 10 10 9 10 11 10
15 13 11 12 12 12 14 14 13 13 12 12 13 15 17 17 16 16 15 15 14 14 15 15 15 14 14 13 13 14 14 15 12 12 12 12 10 10 11 9 10 10 9 9 9 8 8 7 8 9 9 9 8 8 8 10 8 10 10 9 10 10 9
18 13 15 15 15 16 16 15 14 13 13 13 13 13 15 17 15 14 15 14 14 14 15 14 14 14 13 14 13 13 12 14 14 12 11 11 13 11 11 9 10 9 9 9 8 8 8 8 8 8 8 7 8 7 6 7 9 8 9 10 10 10 9
18 17 16 16 16 16 16 15 14 15 14 13 13 14 14 17 15 14 15 15 13 13 13 14 13 15 14 13 13 14 13 14 13 14 12 13 13 12 11 10 9 10 10 9 8 8 8 7 7 7 7 6 10 8 8 7 7 8 9 9 9 9 9
19 18 15 17 15 13 14 15 15 14 14 14 13 13 13 15 14 13 14 15 15 15 15 14 14 14 14 13 13 13 14 13 13 14 13 13 12 13 11 10 10 10 10 9 9 9 8 8 8 8 7 8 11 8 8 7 8 7 8 8 9 9 9
18 15 14 11 11 12 13 15 14 10 10 11 11 12 13 14 14 14 15 15 16 16 15 13 12 13 13 13 12 14 12 12 13 13 12 13 13 14 13 12 10 10 10 10 9 9 9 9 9 8 8 8 8 9 8 7 8 10 8 7 7 9 9
14 14 14 12 12 12 12 12 13 12 9 9 10 11 12 13 13 14 15 15 16 16 14 14 13 13 13 13 12 13 14 11 13 15 13 13 13 14 14 13 12 11 10 10 10 9 10 8 8 8 8 9 9 9 7 8 8 8 8 8 7 9 8
17 19 17 17 16 12 11 10 11 11 10 8 8 9 12 13 13 14 16 15 15 15 15 14 14 14 14 14 13 13 14 13 13 15 13 13 13 13 13 15 13 12 11 11 10 10 10 9 9 8 8 9 9 10 8 8 7 7 7 7 7 6 9
18 20 18 16 15 11 10 9 8 10 13 11 8 8 10 13 13 15 14 15 15 16 16 14 15 15 14 13 13 13 14 14 13 11 12 13 13 13 13 13 13 13 12 11 11 10 10 10 10 9 9 9 9 10 9 9 9 6 6 6 7 6 5
18 17 17 16 12 14 13 10 11 10 10 11 10 9 9 10 12 14 14 15 14 15 15 15 15 14 14 12 13 12 13 13 13 13 12 13 13 13 13 14 13 13 12 12 12 10 10 10 11 10 9 8 9 10 10 10 10 8 7 7 6 5 5
19 19 16 15 15 15 14 12 10 11 11 11 11 10 10 11 13 14 13 14 14 14 14 14 15 15 14 13 13 12 12 14 14 14 14 13 11 12 14 14 13 12 11 12 12 11 11 11 11 10 10 9 9 10 10 10 12 12 7 8 7 7 9
20 18 15 10 13 15 14 13 13 10 12 13 14 13 13 13 14 14 14 10 14 14 14 14 13 14 14 15 14 15 14 15 16 14 14 14 14 14 14 14 13 13 12 13 11 11 12 12 11 11 10 10 10 10 11 11 12 11 10 10 10 9 8
16 18 15 13 18 16 16 13 14 13 13 13 12 14 15 14 15 14 14 15 14 14 15 15 14 14 14 14 15 12 14 16 16 16 15 15 15 13 13 14 13 13 13 14 13 13 12 12 12 12 12 11 11 11 11 11 12 12 11 9 10 10 10
18 17 17 17 19 18 12 12 14 17 16 12 14 15 14 14 15 15 14 11 15 16 17 16 14 15 15 15 15 16 16 16 17 16 16 16 15 14 13 13 14 13 11 13 14 13 12 12 11 12 13 12 12 12 12 12 11 12 12 11 10 10 10
19 18 18 17 17 16 13 11 13 16 15 12 13 12 12 14 14 14 14 17 16 16 16 15 15 15 16 16 15 16 17 16 16 16 16 15 15 14 13 12 12 13 13 14 14 13 12 11 11 11 13 12 12 13 12 12 13 12 11 11 9 10 10
17 19 18 17 18 17 15 12 12 17 16 15 15 12 12 14 14 14 13 15 16 15 15 14 16 17 16 16 15 15 16 16 16 16 16 15 15 15 14 14 13 13 13 14 13 14 12 14 13 12 13 12 12 11 11 12 12 12 12 12 11 10 10
18 20 20 19 17 16 16 16 16 15 17 19 16 15 14 12 12 14 15 16 15 15 15 15 16 16 16 16 15 14 14 15 16 15 15 15 15 15 14 15 14 14 13 14 13 12 13 15 14 13 14 13 13 12 12 12 12 13 13 12 12 11 10
16 18 16 16 16 17 17 16 16 18 18 18 17 16 17 16 13 14 15 15 15 15 16 16 15 14 15 15 15 15 15 15 14 14 15 17 17 16 16 15 14 15 15 14 13 13 13 13 12 14 14 14 14 13 12 12 13 13 13 12 11 11 11
13 15 16 15 15 15 17 18 18 17 18 21 18 17 17 15 11 12 13 13 14 13 14 16 16 15 15 15 14 14 15 14 15 15 14 15 16 16 16 16 15 16 17 16 15 15 14 14 12 13 13 12 13 14 14 13 13 13 12 12 12 12 11
11 17 18 18 17 17 19 19 18 15 15 17 16 16 13 11 11 11 12 12 13 12 14 15 14 14 15 16 14 14 14 15 16 16 16 16 16 16 16 16 16 17 17 16 19 16 16 15 13 13 12 11 13 14 14 13 13 13 13 13 13 12 12
9 13 17 16 17 15 13 12 14 15 18 17 16 12 13 13 11 12 12 12 11 12 14 14 14 18 15 13 14 13 13 14 16 16 16 16 16 17 17 17 16 19 17 17 17 18 17 15 16 14 13 13 13 13 15 14 13 13 13 13 13 12 13
12 12 13 14 16 17 17 15 15 18 18 17 18 15 13 15 16 15 16 14 14 12 14 14 19 19 19 17 14 14 13 13 14 15 16 16 16 17 17 18 16 15 15 14 16 18 17 18 17 17 17 14 12 14 15 14 14 13 14 13 13 13 14
11 14 16 16 14 15 14 11 14 18 17 17 17 16 17 17 14 14 12 14 14 14 15 16 19 20 20 20 17 13 12 11 11 12 15 17 16 16 17 17 16 14 16 17 13 13 16 19 19 19 19 20 19 16 13 13 13 14 14 13 14 15 15
13 12 10 12 14 14 16 15 15 15 17 17 14 19 21 20 20 16 14 16 16 16 14 14 20 21 21 21 21 16 12 13 13 14 16 18 18 17 16 15 15 14 12 19 16 15 14 15 17 20 20 20 20 21 20 20 17 12 10 13 15 16 17
9 12 11 10 11 15 14 15 15 15 18 17 15 16 17 18 19 20 17 18 17 15 16 14 19 20 21 22 23 19 15 17 17 17 18 18 16 17 17 16 15 14 13 13 13 16 16 15 14 14 14 13 14 19 20 23 23 21 18 16 17 18 18
8 10 9 10 11 13 17 14 16 17 16 14 15 18 17 18 17 17 18 18 16 15 13 17 16 18 19 21 21 18 16 17 17 16 17 17 18 18 18 16 16 16 16 16 15 18 18 17 16 14 14 15 15 18 20 19 18 15 14 15 22 23 19
5 11 12 12 12 14 14 14 15 11 8 9 11 13 14 13 15 17 18 18 17 17 16 18 18 19 21 20 21 13 14 17 18 16 15 16 16 16 15 17 17 16 15 17 18 24 21 17 16 17 16 15 16 18 19 22 21 17 18 17 18 24 21
12 8 8 10 11 11 12 13 14 10 13 14 13 14 12 15 16 17 17 17 17 16 15 16 18 20 21 21 14 11 13 16 17 17 16 16 16 15 14 17 19 17 18 16 15 20 22 19 16 16 16 17 17 16 18 17 18 21 21 22 21 22 22
12 12 11 9 8 11 11 9 11 10 11 12 13 13 14 12 12 12 15 16 16 16 15 15 18 20 22 20 18 13 14 17 17 13 16 17 16 15 17 18 17 19 18 18 16 16 19 18 17 16 17 18 17 18 19 17 11 12 20 20 22 22 21
11 11 12 12 10 9 8 10 11 10 10 12 12 11 12 10 11 11 13 14 14 15 15 14 15 19 20 21 19 13 16 16 16 16 17 16 15 15 16 14 19 19 19 19 17 16 19 17 16 17 17 17 17 19 20 17 14 11 8 9 11 14 16
11 11 11 12 11 10 9 9 8 8 9 11 11 10 11 12 15 14 13 13 13 15 17 15 12 17 19 20 23 15 17 16 16 16 15 14 13 14 16 16 15 21 24 23 17 12 15 17 15 16 16 15 15 20 18 15 13 12 9 10 15 16 17
12 12 11 11 11 11 10 9 9 9 8 9 10 11 13 13 12 13 13 13 13 14 14 15 14 18 18 21 23 20 16 17 14 12 13 13 13 12 13 15 16 16 20 21 19 14 14 18 19 15 16 15 16 17 10 11 12 13 11 12 11 13 13
11 10 10 10 11 11 11 10 10 9 8 8 10 11 11 11 11 12 11 12 12 14 13 14 14 13 19 20 21 24 16 16 14 12 11 12 13 13 13 13 12 13 18 19 21 21 18 14 17 12 14 17 18 16 9 10 10 6 9 12 13 12 12
13 10 10 10 11 12 11 11 11 10 10 9 9 9 9 9 10 11 9 9 9 10 12 10 14 10 14 18 21 23 23 17 13 11 13 13 13 13 12 11 12 13 14 18 20 22 20 19 13 13 19 21 21 22 11 8 11 10 8 9 10 11 12
13 12 12 11 12 12 12 11 11 10 10 10 9 9 8 9 9 11 12 11 11 13 14 13 12 17 15 20 19 22 21 20 13 11 14 14 13 11 11 11 4 6 3 11 16 18 19 19 14 18 20 23 24 19 9 9 11 11 11 9 9 10 12
Wind_Direction
207 208 209 206 203 194 202 207 205 208 210 208 206 204 203 202 200 200 200 202 207 206 204 207 210 204 205 206 207 207 211 208 207 205 189 187 194 205 215 223 229 236 239 243 252 268 269 269 206 218 244 234 227 222 229 233 229 229 226 227 227 223 221
204 205 203 209 206 204 208 204 208 208 209 208 206 204 203 201 197 200 201 202 205 207 207 209 208 206 204 204 201 206 208 209 207 211 203 195 197 206 199 218 227 229 230 232 242 239 248 246 251 226 241 221 223 220 225 232 235 231 229 221 227 237 228
203 206 208 201 204 203 207 203 201 205 204 207 206 202 201 202 197 197 201 203 205 208 210 209 203 206 204 206 205 207 208 212 208 208 215 212 205 211 210 210 213 219 227 230 223 228 232 245 261 264 242 204 200 236 221 217 223 229 224 219 220 228 233
203 204 205 209 199 200 208 205 201 203 202 201 205 205 201 200 199 199 204 203 202 206 210 209 206 206 204 205 209 206 209 212 212 211 215 223 223 219 219 219 221 218 220 221 220 216 229 239 243 242 251 262 261 253 200 205 222 220 221 216 218 222 228
207 202 207 207 205 204 208 207 204 202 203 201 196 202 204 203 200 201 203 206 204 204 208 209 209 206 207 208 210 211 211 212 217 216 217 223 227 229 227 229 229 231 227 227 225 223 226 238 243 257 261 270 262 252 251 184 213 227 218 219 217 220 221
210 207 209 209 206 206 205 204 204 208 203 203 200 204 205 205 202 201 204 207 207 204 203 205 206 207 208 209 211 212 215 215 216 219 221 224 226 230 231 229 232 233 234 228 230 231 233 240 242 259 262 270 261 263 258 226 213 221 224 221 222 222 220
216 213 214 215 207 203 204 203 205 208 205 204 199 200 203 200 201 202 206 209 211 208 205 203 205 208 208 209 210 212 215 219 219 218 223 225 227 230 235 237 231 231 233 232 228 228 229 228 231 236 252 252 256 257 254 250 241 240 217 223 225 225 221
217 211 213 211 206 198 202 206 208 200 200 202 203 203 202 201 194 199 203 205 208 208 200 197 200 202 205 210 211 213 214 218 219 218 220 221 224 227 229 234 237 235 233 231 231 232 229 230 236 238 245 256 257 249 251 248 256 240 246 237 223 222 226
217 215 212 206 206 201 193 200 206 202 196 202 205 197 194 202 193 199 204 205 206 207 199 195 196 201 203 208 213 214 216 215 219 218 220 220 224 228 229 231 236 239 233 231 234 233 239 241 241 239 237 242 254 258 248 247 247 255 237 244 233 229 226
222 221 218 213 209 197 188 192 199 192 192 196 205 204 190 198 201 201 208 208 208 209 204 202 204 207 209 214 218 218 219 217 220 222 220 223 225 226 230 232 234 237 239 236 234 236 235 237 241 242 241 243 250 258 257 257 247 251 233 228 251 220 216
224 224 222 220 210 194 181 184 193 190 194 188 187 195 188 195 202 204 208 208 207 210 209 206 209 214 216 216 214 219 219 216 216 219 225 225 226 227 227 230 231 236 237 241 235 233 239 239 240 240 242 242 244 251 255 258 260 254 254 224 237 238 221
224 224 225 221 205 203 196 185 171 178 185 185 176 170 164 191 204 205 208 212 211 210 211 214 213 213 213 214 215 218 220 219 220 217 219 225 227 226 226 228 231 235 236 238 240 232 232 236 240 243 243 244 242 245 251 255 261 254 265 264 248 236 235
220 225 228 221 214 210 195 189 179 180 184 185 184 180 182 198 204 210 211 216 216 215 213 213 215 215 213 216 216 217 219 217 217 222 224 220 225 227 226 224 225 230 231 234 235 235 235 236 241 244 243 240 242 244 245 249 253 260 245 253 261 254 242
220 221 214 222 232 215 200 194 195 178 180 191 198 193 188 197 209 215 217 213 223 213 211 209 212 215 215 216 216 216 216 219 219 221 223 220 219 224 225 223 221 223 228 234 235 235 236 239 241 242 246 243 240 238 240 244 251 253 253 256 262 261 256
223 227 221 194 228 226 216 198 202 180 183 180 183 201 194 199 210 210 213 212 214 215 208 205 206 210 211 212 214 214 217 217 220 222 219 223 222 221 224 225 223 219 220 230 235 239 239 237 239 241 238 239 241 240 237 245 247 255 259 251 254 257 256
225 225 219 210 208 218 205 209 203 200 189 172 180 187 194 198 200 202 198 215 226 214 208 202 205 209 210 211 210 214 217 218 218 219 219 221 223 221 219 223 227 225 221 225 229 233 237 241 241 242 241 238 242 242 240 239 249 255 256 253 253 258 260
223 221 223 222 218 207 196 194 200 195 187 171 177 176 184 194 196 197 200 195 216 220 218 202 200 210 211 210 211 214 216 218 221 221 221 219 221 223 218 214 221 226 224 227 225 222 219 226 232 239 245 244 241 242 243 241 241 249 257 265 255 248 249
221 222 219 221 216 210 201 187 192 200 192 183 188 184 192 197 198 198 202 206 211 215 218 215 207 206 210 212 213 213 215 219 222 224 222 219 222 222 221 217 218 221 228 231 230 228 223 214 217 226 236 242 243 244 243 243 244 243 246 250 257 258 262
224 221 222 221 217 214 204 199 199 197 198 191 186 193 190 190 196 201 204 209 211 212 214 216 219 216 214 215 217 218 216 215 217 221 221 219 219 221 222 220 216 216 221 225 224 227 230 226 224 224 226 230 236 236 240 242 241 245 247 246 250 256 252
226 224 216 217 217 211 203 197 201 211 210 197 187 190 193 189 192 201 207 208 211 211 214 213 216 214 214 214 214 218 220 217 216 219 222 219 219 219 219 219 219 216 219 221 221 222 221 223 223 227 228 230 234 236 234 234 236 240 243 248 248 247 253
240 234 220 210 206 207 215 215 213 212 214 214 202 192 190 188 181 196 203 204 208 214 219 215 212 212 213 214 214 214 219 221 219 219 223 223 219 219 216 215 214 216 217 217 217 217 218 220 217 223 227 231 234 237 239 235 233 236 240 243 246 248 247
240 239 224 210 206 212 218 218 217 214 216 216 215 203 194 191 189 198 200 201 204 205 216 219 214 210 214 215 205 203 209 218 221 220 219 220 219 218 217 216 216 216 215 213 211 214 215 211 215 218 217 207 220 233 237 236 236 232 236 241 242 244 247
260 253 239 222 213 208 203 206 208 212 210 209 210 199 177 201 203 203 196 201 202 204 209 215 202 194 199 203 202 201 202 213 220 221 221 220 219 219 218 216 216 213 212 208 207 209 217 215 216 224 220 206 206 222 231 236 235 231 233 236 238 240 242
219 246 262 245 227 214 207 203 210 209 211 209 210 200 203 199 196 191 197 196 200 208 217 215 197 189 194 200 203 204 200 199 216 223 221 220 218 216 219 220 221 208 208 212 210 208 211 217 217 224 239 244 232 218 223 230 234 231 230 234 237 236 239
249 222 223 237 236 225 212 211 217 217 208 205 203 203 205 206 198 195 198 202 199 203 215 215 199 194 192 195 200 205 204 203 204 216 223 222 221 219 219 220 219 218 214 212 204 204 211 215 215 219 223 229 236 245 240 232 232 232 231 234 233 233 238
238 256 270 259 244 235 226 216 222 223 215 203 202 208 211 210 208 200 198 204 206 206 215 213 204 197 191 192 196 200 203 205 209 211 216 220 223 223 223 221 221 219 208 195 203 211 211 209 215 218 222 227 234 235 240 243 246 248 245 235 236 237 232
242 248 247 240 251 262 244 231 223 220 218 208 204 204 203 209 212 210 206 208 211 211 218 215 212 203 191 191 195 195 207 211 214 216 214 217 219 220 216 216 214 214 214 195 193 205 215 213 201 207 218 224 229 232 235 240 241 241 242 248 244 239 236
255 273 262 253 242 245 257 240 223 219 218 204 203 203 202 206 207 208 209 210 212 212 216 213 200 204 200 196 197 195 209 215 219 221 219 219 223 225 224 220 212 211 210 206 198 195 206 212 211 201 203 211 219 232 234 232 230 225 228 231 241 246 247
210 219 245 244 246 240 233 242 247 232 229 225 214 205 205 207 211 213 211 212 213 215 216 203 197 197 200 199 193 196 209 217 222 226 225 225 225 227 229 229 225 220 213 211 196 190 196 201 209 214 211 214 227 233 236 238 234 223 226 229 231 239 242
324 291 243 238 246 252 250 240 242 237 226 217 217 219 214 210 206 209 210 211 216 218 222 206 193 197 200 199 185 201 207 217 224 226 228 225 228 226 224 228 229 228 227 226 211 190 194 194 206 210 218 225 228 229 238 241 226 222 223 227 235 238 244
316 313 303 281 236 230 246 263 273 255 245 232 222 215 213 213 212 213 216 215 215 219 222 215 192 196 198 188 188 200 209 217 222 228 230 229 230 231 228 217 231 235 234 234 222 193 194 193 208 213 219 225 228 232 238 239 236 220 217 218 226 234 238
313 309 304 298 289 267 225 220 224 237 255 253 242 230 221 216 216 216 221 222 220 224 228 225 193 196 192 186 191 205 212 219 220 223 228 230 228 231 234 217 213 227 238 241 221 197 199 197 209 215 218 224 228 233 238 237 231 225 186 213 230 232 242
305 305 301 299 297 289 278 261 239 217 221 244 251 244 230 223 219 219 218 220 223 222 229 234 210 194 189 190 191 202 215 217 221 220 225 229 228 226 229 234 209 207 223 235 246 217 204 203 215 225 226 227 230 237 240 238 229 231 204 205 229 229 234
301 298 295 293 293 289 279 263 255 256 244 230 226 235 233 228 226 226 224 221 226 227 229 230 220 180 189 188 193 202 213 219 219 222 226 230 233 232 231 230 239 207 209 221 227 225 211 207 217 229 235 237 235 244 263 247 230 203 214 219 221 228 233
299 293 291 291 287 283 277 270 261 251 248 249 238 232 231 231 228 227 226 227 229 233 229 220 235 183 186 190 194 201 215 217 213 217 226 234 231 234 231 230 230 214 196 209 216 222 218 212 220 228 235 241 251 259 260 252 261 214 207 229 240 236 233
300 291 286 285 281 277 275 273 263 251 241 235 237 239 241 239 231 226 228 232 231 229 233 232 222 212 186 199 199 204 214 222 213 215 231 233 232 235 230 228 232 225 194 205 211 217 214 209 209 224 236 242 243 246 246 250 249 254 242 230 235 243 245
297 291 285 278 273 269 270 270 263 248 240 235 230 228 225 230 230 223 220 224 227 227 223 227 212 210 198 190 203 205 212 222 227 229 233 242 242 244 245 241 278 2 252 204 208 212 211 209 212 219 227 238 243 244 239 241 242 240 243 247 241 236 241